Home > Time Zones > World Clock > Weather > Italy > Rome > Past weeks

Flag for Italy Weather past 2 weeks in Rome, Italy

Now
64 °F

Passing clouds.


Feels Like: 64 °F
Forecast: 64 / 82 °F
Wind: No wind

Location: Rome / Ciampino

Current Time: Jul 23, 2014 at 3:45:56 AM

Latest Report: Jul 23, 2014 at 2:45 AM


Visibility: N/A

Pressure: 29.77 "Hg

Humidity: 94%

Dew point: 63 °F

Location of RomeLocation

Historic Weather in Rome — Graph

°F

Rome temperature yesterday

Maximum temperature yesterday: 73 °F (at 9:15 AM)
Minimum temperature yesterday: 66 °F (at 2:45 AM)
Average temperature yesterday: 70 °F

Past Weeks' High & Low Weather Summary

 TemperatureHumidityPressure
High91 °F (Jul 20, 3:15 PM)100% (Jul 8, 2:45 AM)30.04 "Hg (Jul 8, 2:45 AM)
Low59 °F (Jul 11, 2:15 AM)29% (Jul 18, 2:45 PM)29.68 "Hg (Jul 10, 4:15 AM)
Average73 °F70%29.90 "Hg
* Reported Jul 8 1:15 AM — Jul 23 1:15 AM, Rome, Weather by CustomWeather, © 2014

Note: Actual official high and low records may vary slightly from our data, if they occured in-between our weather recording intervals... More about our weather records

Advertising

Rome weather history for previous 24 hours

 ConditionsComfort  
Time TempWeatherWind HumidityBarometerVisibility
1:15 AM
Jul 23
64 °FPassing clouds.No wind88%29.77 "HgN/A
6:45 PM
Jul 22
72 °FLight rain. Scattered clouds.No wind83%29.74 "HgN/A
6:15 PM72 °FThunderstorms. Scattered clouds.No wind73%29.74 "Hg5 mi
5:45 PM72 °FThunderstorms. Scattered clouds.2 mph73%29.71 "HgN/A
5:15 PM72 °FThunderstorms. Scattered clouds.8 mph73%29.71 "HgN/A
4:45 PM73 °FScattered clouds.9 mph74%29.71 "HgN/A
4:15 PM73 °FScattered clouds.9 mph78%29.74 "HgN/A
3:45 PM73 °FScattered clouds.9 mph78%29.74 "HgN/A
3:15 PM73 °FScattered clouds.10 mph78%29.74 "HgN/A
2:45 PM73 °FThunderstorms. Scattered clouds.9 mph83%29.74 "Hg6 mi
2:15 PM70 °FThunderstorms. Scattered clouds.1 mph83%29.74 "Hg6 mi
1:45 PM68 °FThunderstorms. Scattered clouds.6 mph88%29.74 "Hg6 mi
12:45 PM66 °FThunderstorms. Scattered clouds.5 mph83%29.74 "Hg6 mi
12:15 PM68 °FMild.N/A73%29.74 "HgN/A
11:45 AM72 °FThunderstorms. Scattered clouds.6 mph73%29.74 "HgN/A
11:15 AM73 °FScattered clouds.2 mph69%29.71 "HgN/A
10:45 AM73 °FScattered clouds.8 mph69%29.71 "HgN/A
10:15 AM73 °FScattered clouds.12 mph69%29.71 "HgN/A
9:45 AM73 °FScattered clouds.2 mph78%29.71 "HgN/A
9:15 AM73 °FScattered clouds.1 mph74%29.71 "HgN/A
8:45 AM72 °FScattered clouds.6 mph78%29.71 "HgN/A
8:15 AM70 °FScattered clouds.8 mph78%29.71 "HgN/A
7:45 AM68 °FMild.9 mph83%29.71 "HgN/A
7:15 AM66 °FScattered clouds.9 mph88%29.71 "HgN/A
6:45 AM66 °FPassing clouds.9 mph94%30.01 "HgN/A
6:15 AM66 °FPassing clouds.5 mph94%29.74 "HgN/A
5:45 AM66 °FPassing clouds.2 mph100%29.74 "HgN/A
5:15 AM66 °FPassing clouds.3 mph100%29.71 "HgN/A
4:45 AM66 °FLight rain. Passing clouds.7 mph94%29.71 "HgN/A
4:15 AM66 °FLight rain. Passing clouds.6 mph94%29.71 "HgN/A
3:45 AM66 °FLight rain. Passing clouds.6 mph94%29.71 "Hg5 mi
3:15 AM66 °FLight rain. Passing clouds.6 mph94%29.74 "Hg5 mi
Weather by CustomWeather, © 2014

See weather overviewHow to use our weather pages